Location: Newark
(41.6500°N, 71.4833°W)
Time: 15:26:29
(UTC+00:00)

deb Explorer IX - Pass Details

Date: 30 January 2020
Orbit: 549 x 1099 km, 38.8° (Epoch: 17 February)

Event Time Altitude Azimuth Distance (km) Brightness Sun altitude
Rises 22:35:16 0° 200° (SSW) 3,294 ? -7.3°
Reaches altitude 10° 22:38:25 10° 182° (S) 2,477 ? -7.8°
Maximum altitude 22:42:17 18° 141° (SE) 2,095 ? -8.5°
Drops below altitude 10° 22:46:28 10° 101° (E) 2,729 ? -9.3°
Enters shadow 22:47:01 - 98° (E) 2,868 ? -9.4°
Sets 22:50:10 0° 84° (E) 3,771 - -10.0°
